Change the Weather History Date:

Tuesday, October 9, 2012

  Actual Average Record
Temperature  
Mean Temperature 10 °F -  
Max Temperature 15 °F 14 °F 28 °F (2007)
Min Temperature 5 °F 5 °F -5 °F (1996)
Degree Days  
Heating Degree Days 54    
Moisture  
Dew Point 7 °F    
Average Humidity 77    
Maximum Humidity 86    
Minimum Humidity 54    
Precipitation  
Precipitation 0.00 in - - ()
Sea Level Pressure  
Sea Level Pressure 29.80 in    
Wind  
Wind Speed 19 mph ()    
Max Wind Speed 29 mph    
Max Gust Speed 33 mph    
Visibility 11.9 miles    
Events Snow    
Averages and records for this station are not official NWS values.
T = Trace of Precipitation, MM = Missing Value Source: Averaged Metar Reports

Daily Weather History Graph

Daily Weather History Graph

Search for Another Location

Airport or City:

Trip Planner

Search our weather history database for the weather conditions in past years. The results will help you decide how hot, cold, wet, or windy it might be!

Date:

Astronomy

Oct. 09, 2012 Rise Set
Actual Time 8:32 AM CDT 5:39 PM CDT
Civil Twilight 7:11 AM CDT 6:59 PM CDT
Nautical Twilight 5:38 AM CDT 8:31 PM CDT
Astronomical Twilight 3:47 AM CDT 10:19 PM CDT
Moon 10:35 PM CDT (10/9) 6:57 PM CDT (10/9)
Length of Visible Light 11h 48m
Length of Day
9h 06m
Last Quarter, 36% of the Moon is Illuminated
Oct 9
Last Quarter
Oct 15
New
Oct 21
First Quarter
Oct 29
Full
Nov 6
Last Quarter

Hourly Weather History & Observations

Time (CDT) Temp. Windchill Dew Point Humidity Pressure Visibility Wind Dir Wind Speed Gust Speed Precip Events Conditions
12:00 AM 15.8 °F 0.3 °F 12.2 °F 86% 29.71 in 4.0 mi ENE 16.1 mph 21.9 mph N/A Snow Light Snow
1:00 AM 15 °F - 10 °F 71% 29.70 in 10 mi ENE 19.6 mph - - Snow Light Snow
1:00 AM 15.8 °F -1.1 °F 10.4 °F 79% 29.70 in 10.0 mi ENE 19.6 mph - N/A Snow Light Snow
2:00 AM 15.8 °F -1.5 °F 10.4 °F 79% 29.70 in 15.0 mi NE 20.7 mph - N/A Snow Light Snow
3:00 AM 15.8 °F -1.5 °F 10.4 °F 79% 29.70 in 4.0 mi NNE 20.7 mph - N/A Snow Light Snow
4:00 AM 24.8 °F 9.3 °F 10.4 °F 54% 29.70 in 4.0 mi NNE 24.2 mph - N/A Snow Light Snow
5:00 AM 14.0 °F -3.0 °F 10.4 °F 86% 29.71 in 8.0 mi North 18.4 mph 24.2 mph N/A Snow Light Snow
6:00 AM 15.8 °F -2.3 °F 10.4 °F 79% 29.72 in 15.0 mi North 23.0 mph - N/A Snow Light Snow
7:00 AM 15 °F - 10 °F 71% 29.74 in 15 mi NNE 27.6 mph - - Snow Light Snow
7:00 AM 15.8 °F 0.3 °F 10.4 °F 79% 29.74 in 15.0 mi NNE 16.1 mph 27.6 mph N/A Snow Light Snow
7:32 AM - - - N/A% - 15.0 mi North 24.2 mph - N/A   Unknown
7:40 AM - - - N/A% - 8.0 mi North 26.5 mph - N/A   Unknown
7:49 AM - - - N/A% - 1.5 mi North 28.8 mph - N/A   Unknown
8:00 AM 14.0 °F -5.8 °F 10.4 °F 86% 29.74 in 1.5 mi North 26.5 mph 33.4 mph N/A Snow Light Snow
8:10 AM - - - N/A% - 1.0 mi North 28.8 mph - N/A   Unknown
8:47 AM - - - N/A% - 2.0 mi North 28.8 mph - N/A   Unknown
9:00 AM 14.0 °F -5.5 °F 8.6 °F 79% 29.77 in 1.5 mi North 25.3 mph 31.1 mph N/A Snow Light Snow
9:20 AM - - - N/A% - 15.0 mi North 26.5 mph - N/A   Unknown
10:00 AM 14.0 °F -3.9 °F 8.6 °F 79% 29.78 in 15.0 mi North 20.7 mph 26.5 mph N/A Snow Light Snow
10:27 AM - - - N/A% - 15.0 mi North 23.0 mph - N/A   Unknown
11:00 AM 12.2 °F -7.1 °F 5.0 °F 73% 29.79 in 15.0 mi NNE 23.0 mph 28.8 mph N/A Snow Low Drifting Snow
12:00 PM 10.4 °F -8.6 °F 5.0 °F 79% 29.81 in 15.0 mi North 20.7 mph - N/A   Partly Cloudy
12:50 PM - - - N/A% - 15.0 mi NNE 19.6 mph - N/A   Unknown
1:00 PM 14 °F - 7 °F 62% 29.83 in 15 mi NNE 19.6 mph - - Snow Light Snow
1:00 PM 14.0 °F -3.4 °F 6.8 °F 73% 29.83 in 15.0 mi NNE 19.6 mph - N/A Snow Light Snow
2:00 PM 15.8 °F -2.3 °F 8.6 °F 73% 29.84 in 15.0 mi North 23.0 mph - N/A Snow Light Snow
3:00 PM 12.2 °F -7.1 °F 6.8 °F 79% 29.85 in 15.0 mi North 23.0 mph 28.8 mph N/A Snow Light Snow
4:00 PM 14.0 °F -4.7 °F 6.8 °F 73% 29.87 in 15.0 mi North 23.0 mph - N/A Snow Light Snow
5:00 PM 12.2 °F -6.7 °F 5.0 °F 73% 29.89 in 15.0 mi North 21.9 mph - N/A Snow Light Snow
5:28 PM - - - N/A% - 15.0 mi North 21.9 mph - N/A   Unknown
6:00 PM 10.4 °F -10.3 °F 3.2 °F 73% 29.90 in 15.0 mi NNE 25.3 mph - N/A Snow Low Drifting Snow
6:20 PM - - - N/A% - 15.0 mi North 16.1 mph - N/A   Unknown
7:00 PM 11 °F - 6 °F 71% 29.91 in 15 mi NNW 21.9 mph - - Snow Light Snow
7:00 PM 10.4 °F -9.1 °F 6.8 °F 85% 29.91 in 15.0 mi NNW 21.9 mph - N/A Snow Light Snow
7:35 PM - - - N/A% - 15.0 mi NNW 19.6 mph - N/A   Unknown
8:00 PM 6.8 °F -14.3 °F 1.4 °F 79% 29.91 in 15.0 mi North 23.0 mph - N/A Snow Low Drifting Snow
9:00 PM 6.8 °F -12.4 °F 1.4 °F 79% 29.91 in 15.0 mi North 18.4 mph - N/A   Partly Cloudy
10:00 PM 6.8 °F -10.7 °F 1.4 °F 79% 29.92 in 15.0 mi NW 15.0 mph - N/A   Partly Cloudy
10:27 PM - - - N/A% - 15.0 mi NW 13.8 mph - N/A   Partly Cloudy
11:00 PM 5.0 °F -11.6 °F 1.4 °F 85% 29.92 in 15.0 mi NW 12.7 mph - N/A   Partly Cloudy